DLH2GY EDDP-EDDM

Flight info

Callsign DLH2GY
Flight time 0h 38m
Altitude 27000
Route GOLAT T202 ALOSO T703 LULAR T105 LANDU
Aircraft A321/M-SDE3FGHIRWY/LB1

Departure

Time 2026-05-04 18:22
Airport Leipzig/Halle Airport (EDDP)

Arrival

Time 2026-05-04 19:00
Airport Munich Airport (EDDM)
Time Latitude Longitude Altitude Speed Heading
2026-05-04 17:46 51.41902 12.22031 443 ft 0 kts 16°
2026-05-04 18:06 51.41882 12.22023 431 ft 4 kts 15°
2026-05-04 18:07 51.41857 12.22011 432 ft 4 kts 21°
2026-05-04 18:07 51.41834 12.21992 438 ft 4 kts 43°
2026-05-04 18:07 51.41820 12.21960 433 ft 4 kts 87°
2026-05-04 18:07 51.41820 12.21943 432 ft 1 kts 105°
2026-05-04 18:11 51.41820 12.21944 445 ft 0 kts 105°
2026-05-04 18:12 51.41819 12.21949 445 ft 2 kts 105°
2026-05-04 18:12 51.41813 12.21985 442 ft 5 kts 105°
2026-05-04 18:12 51.41803 12.22046 447 ft 7 kts 105°
2026-05-04 18:12 51.41788 12.22131 449 ft 9 kts 105°
2026-05-04 18:13 51.41771 12.22229 451 ft 9 kts 105°
2026-05-04 18:13 51.41755 12.22323 454 ft 8 kts 105°
2026-05-04 18:13 51.41722 12.22520 456 ft 11 kts 105°
2026-05-04 18:14 51.41700 12.22647 461 ft 12 kts 105°
2026-05-04 18:14 51.41676 12.22786 464 ft 14 kts 105°
2026-05-04 18:14 51.41646 12.22962 462 ft 18 kts 104°
2026-05-04 18:15 51.41603 12.23406 463 ft 23 kts 85°
2026-05-04 18:15 51.41627 12.23909 469 ft 23 kts 85°
2026-05-04 18:15 51.41638 12.24163 475 ft 22 kts 86°
2026-05-04 18:16 51.41650 12.24421 472 ft 24 kts 85°
2026-05-04 18:16 51.41662 12.24666 475 ft 16 kts 86°
2026-05-04 18:16 51.41717 12.24798 474 ft 15 kts 13°
2026-05-04 18:17 51.41911 12.24871 487 ft 15 kts 13°
2026-05-04 18:17 51.42008 12.24908 491 ft 15 kts 13°
2026-05-04 18:17 51.42254 12.25002 478 ft 23 kts 13°
2026-05-04 18:18 51.42431 12.25070 475 ft 27 kts 13°
2026-05-04 18:18 51.42605 12.25136 466 ft 26 kts 13°
2026-05-04 18:18 51.42772 12.25200 457 ft 22 kts 13°
2026-05-04 18:18 51.42911 12.25252 450 ft 20 kts 13°
2026-05-04 18:19 51.42996 12.25461 454 ft 10 kts 84°
2026-05-04 18:19 51.43004 12.25591 452 ft 13 kts 88°
2026-05-04 18:19 51.43010 12.25751 453 ft 14 kts 75°
2026-05-04 18:20 51.43095 12.25805 453 ft 14 kts 357°
2026-05-04 18:20 51.43176 12.25717 455 ft 15 kts 300°
2026-05-04 18:20 51.43224 12.25564 456 ft 16 kts 296°
2026-05-04 18:20 51.43282 12.25426 458 ft 14 kts 322°
2026-05-04 18:21 51.43299 12.25287 458 ft 15 kts 265°
2026-05-04 18:21 51.43282 12.24927 456 ft 69 kts 266°
2026-05-04 18:21 51.43225 12.23682 452 ft 150 kts 266°
2026-05-04 18:21 51.43148 12.21870 995 ft 166 kts 266°
2026-05-04 18:22 51.43071 12.20020 1859 ft 171 kts 267°
2026-05-04 18:22 51.42975 12.18037 2402 ft 186 kts 265°
2026-05-04 18:22 51.42855 12.15896 2887 ft 203 kts 265°
2026-05-04 18:22 51.42728 12.13523 3387 ft 225 kts 265°
2026-05-04 18:23 51.42598 12.10882 3955 ft 247 kts 265°
2026-05-04 18:23 51.42469 12.08071 4634 ft 262 kts 265°
2026-05-04 18:23 51.42337 12.05127 5591 ft 266 kts 265°
2026-05-04 18:23 51.42196 12.02156 6581 ft 267 kts 264°
2026-05-04 18:24 51.41986 11.99151 7510 ft 270 kts 256°
2026-05-04 18:24 51.41244 11.96464 8420 ft 271 kts 234°
2026-05-04 18:24 51.39873 11.94375 9353 ft 275 kts 212°
2026-05-04 18:24 51.38056 11.93366 10203 ft 282 kts 187°
2026-05-04 18:25 51.36073 11.93579 10729 ft 300 kts 173°
2026-05-04 18:25 51.33926 11.94134 11089 ft 321 kts 172°
2026-05-04 18:25 51.31646 11.94752 11403 ft 341 kts 172°
2026-05-04 18:25 51.29261 11.95379 11966 ft 351 kts 172°
2026-05-04 18:26 51.26858 11.95997 12656 ft 357 kts 173°
2026-05-04 18:26 51.24369 11.96623 13400 ft 362 kts 173°
2026-05-04 18:26 51.21888 11.97233 14108 ft 365 kts 173°
2026-05-04 18:26 51.19368 11.97841 14799 ft 368 kts 173°
2026-05-04 18:27 51.16819 11.98442 15529 ft 370 kts 173°
2026-05-04 18:27 51.14259 11.99033 16276 ft 372 kts 174°
2026-05-04 18:27 51.11686 11.99615 17054 ft 373 kts 174°
2026-05-04 18:27 51.09143 12.00181 17672 ft 378 kts 174°
2026-05-04 18:28 51.06517 12.00779 18199 ft 384 kts 174°
2026-05-04 18:28 51.03857 12.01420 18715 ft 389 kts 174°
2026-05-04 18:28 51.01165 12.02108 19249 ft 392 kts 173°
2026-05-04 18:28 50.98471 12.02799 19880 ft 392 kts 174°
2026-05-04 18:29 50.95792 12.03467 20472 ft 394 kts 174°
2026-05-04 18:29 50.93069 12.04130 20947 ft 399 kts 174°
2026-05-04 18:29 50.90287 12.04792 21347 ft 406 kts 174°
2026-05-04 18:29 50.87470 12.05455 21841 ft 410 kts 174°
2026-05-04 18:30 50.81799 12.06785 23054 ft 412 kts 174°
2026-05-04 18:30 50.78989 12.07440 23543 ft 416 kts 174°
2026-05-04 18:30 50.76106 12.08131 23896 ft 421 kts 174°
2026-05-04 18:31 50.73193 12.08837 24325 ft 424 kts 174°
2026-05-04 18:31 50.70265 12.09535 24778 ft 426 kts 174°
2026-05-04 18:31 50.67313 12.10232 25244 ft 428 kts 174°
2026-05-04 18:31 50.64396 12.10916 25660 ft 430 kts 175°
2026-05-04 18:32 50.61433 12.11605 25955 ft 429 kts 175°
2026-05-04 18:32 50.58470 12.12292 26205 ft 430 kts 175°
2026-05-04 18:32 50.55498 12.12984 26447 ft 432 kts 175°
2026-05-04 18:32 50.52508 12.13682 26695 ft 434 kts 175°
2026-05-04 18:33 50.49553 12.14376 26944 ft 436 kts 175°
2026-05-04 18:33 50.46512 12.15089 26960 ft 441 kts 174°
2026-05-04 18:33 50.43520 12.15804 26964 ft 440 kts 174°
2026-05-04 18:33 50.40496 12.16555 26978 ft 438 kts 174°
2026-05-04 18:34 50.37470 12.17307 26975 ft 437 kts 174°
2026-05-04 18:34 50.34457 12.18030 26983 ft 437 kts 174°
2026-05-04 18:34 50.31474 12.18721 26976 ft 438 kts 175°
2026-05-04 18:34 50.28451 12.19397 26974 ft 438 kts 175°
2026-05-04 18:35 50.25422 12.20067 26984 ft 438 kts 175°
2026-05-04 18:35 50.22396 12.20741 26995 ft 439 kts 175°
2026-05-04 18:35 50.19402 12.21421 26981 ft 440 kts 175°
2026-05-04 18:35 50.16362 12.22135 26941 ft 441 kts 174°
2026-05-04 18:36 50.13352 12.22855 26955 ft 442 kts 174°
2026-05-04 18:36 50.10309 12.23583 26965 ft 442 kts 174°
2026-05-04 18:36 50.07264 12.24298 26962 ft 442 kts 174°
2026-05-04 18:36 50.04220 12.25000 26960 ft 443 kts 174°
2026-05-04 18:37 50.01157 12.25702 26942 ft 443 kts 174°
2026-05-04 18:37 49.98094 12.26407 26951 ft 443 kts 174°
2026-05-04 18:37 49.95084 12.27103 26954 ft 442 kts 174°
2026-05-04 18:37 49.92030 12.27808 26951 ft 442 kts 174°
2026-05-04 18:38 49.88997 12.28498 26951 ft 441 kts 174°
2026-05-04 18:38 49.85954 12.29175 26954 ft 440 kts 175°
2026-05-04 18:38 49.82923 12.29844 26953 ft 439 kts 174°
2026-05-04 18:38 49.79938 12.30521 26935 ft 438 kts 174°
2026-05-04 18:39 49.76930 12.31222 26561 ft 436 kts 174°
2026-05-04 18:39 49.73968 12.32232 26187 ft 437 kts 165°
2026-05-04 18:39 49.71169 12.34071 25841 ft 439 kts 154°
2026-05-04 18:39 49.68570 12.36649 25461 ft 448 kts 145°
2026-05-04 18:40 49.66105 12.39633 25081 ft 453 kts 144°
2026-05-04 18:40 49.63618 12.42580 24721 ft 457 kts 145°
2026-05-04 18:40 49.61071 12.45528 24372 ft 459 kts 146°
2026-05-04 18:40 49.58433 12.48280 24037 ft 456 kts 153°
2026-05-04 18:41 49.55566 12.50331 23720 ft 451 kts 163°
2026-05-04 18:41 49.52556 12.51445 23406 ft 435 kts 176°
2026-05-04 18:41 49.49613 12.51327 23072 ft 413 kts 192°
2026-05-04 18:41 49.46871 12.50299 22570 ft 401 kts 196°
2026-05-04 18:42 49.44191 12.49380 22029 ft 393 kts 194°
2026-05-04 18:42 49.41547 12.48480 21583 ft 384 kts 195°
2026-05-04 18:42 49.38995 12.47637 21212 ft 374 kts 194°
2026-05-04 18:42 49.36464 12.46904 20827 ft 365 kts 192°
2026-05-04 18:43 49.33960 12.46252 20520 ft 367 kts 191°
2026-05-04 18:43 49.31413 12.45655 20260 ft 372 kts 190°
2026-05-04 18:43 49.28842 12.45064 20025 ft 375 kts 191°
2026-05-04 18:43 49.26251 12.44397 19794 ft 378 kts 192°
2026-05-04 18:44 49.23695 12.43692 19539 ft 376 kts 192°
2026-05-04 18:44 49.21991 12.43209 19361 ft 374 kts 192°
2026-05-04 18:44 49.18570 12.42229 18939 ft 372 kts 192°
2026-05-04 18:44 49.16026 12.41526 18660 ft 370 kts 192°
2026-05-04 18:45 49.13536 12.40860 18418 ft 366 kts 192°
2026-05-04 18:45 49.11030 12.40217 18188 ft 362 kts 191°
2026-05-04 18:45 49.08546 12.39609 17896 ft 359 kts 191°
2026-05-04 18:45 49.06087 12.39000 17607 ft 356 kts 191°
2026-05-04 18:46 49.03681 12.38394 17339 ft 352 kts 191°
2026-05-04 18:46 49.01263 12.37776 17062 ft 349 kts 191°
2026-05-04 18:46 48.98871 12.37154 16735 ft 348 kts 191°
2026-05-04 18:46 48.96509 12.36530 16424 ft 346 kts 191°
2026-05-04 18:47 48.94621 12.36024 16192 ft 344 kts 191°
2026-05-04 18:47 48.92257 12.35388 15802 ft 345 kts 191°
2026-05-04 18:47 48.89925 12.34773 15406 ft 342 kts 191°
2026-05-04 18:47 48.87597 12.34176 15000 ft 335 kts 191°
2026-05-04 18:48 48.85297 12.33603 14522 ft 333 kts 190°
2026-05-04 18:48 48.83008 12.33046 14100 ft 332 kts 190°
2026-05-04 18:48 48.80747 12.32490 13647 ft 325 kts 190°
2026-05-04 18:48 48.78556 12.31940 13099 ft 320 kts 191°
2026-05-04 18:49 48.76373 12.31379 12566 ft 315 kts 191°
2026-05-04 18:49 48.74228 12.30819 12043 ft 311 kts 191°
2026-05-04 18:49 48.72104 12.30272 11497 ft 308 kts 190°
2026-05-04 18:49 48.70001 12.29751 11073 ft 307 kts 190°
2026-05-04 18:50 48.67847 12.29243 10949 ft 319 kts 190°
2026-05-04 18:50 48.65663 12.28728 10944 ft 314 kts 190°
2026-05-04 18:50 48.63517 12.28409 10861 ft 311 kts 179°
2026-05-04 18:50 48.61404 12.28655 10664 ft 298 kts 177°
2026-05-04 18:51 48.59355 12.28959 10338 ft 290 kts 175°
2026-05-04 18:51 48.57375 12.29305 10072 ft 282 kts 175°
2026-05-04 18:51 48.55448 12.29696 9734 ft 278 kts 174°
2026-05-04 18:51 48.53569 12.30121 9335 ft 275 kts 173°
2026-05-04 18:52 48.51675 12.30533 8931 ft 273 kts 173°
2026-05-04 18:52 48.49797 12.30926 8503 ft 272 kts 173°
2026-05-04 18:52 48.47926 12.31305 8091 ft 270 kts 174°
2026-05-04 18:52 48.46079 12.31667 7670 ft 270 kts 173°
2026-05-04 18:53 48.44216 12.31783 7352 ft 265 kts 188°
2026-05-04 18:53 48.42502 12.30924 7097 ft 258 kts 211°
2026-05-04 18:53 48.41205 12.29087 6768 ft 257 kts 232°
2026-05-04 18:53 48.40260 12.26810 6283 ft 263 kts 245°
2026-05-04 18:54 48.39762 12.24168 5942 ft 261 kts 260°
2026-05-04 18:54 48.39573 12.21495 5767 ft 252 kts 265°
2026-05-04 18:54 48.39422 12.18902 5576 ft 245 kts 263°
2026-05-04 18:54 48.39242 12.16435 5430 ft 235 kts 263°
2026-05-04 18:55 48.39064 12.14020 5296 ft 229 kts 262°
2026-05-04 18:55 48.38721 12.09350 5027 ft 220 kts 263°
2026-05-04 18:55 48.38557 12.07056 4757 ft 222 kts 263°
2026-05-04 18:56 48.38387 12.04792 4453 ft 218 kts 263°
2026-05-04 18:56 48.38215 12.02536 4132 ft 215 kts 263°
2026-05-04 18:56 48.38055 12.00313 3822 ft 211 kts 264°
2026-05-04 18:56 48.37900 11.98183 3589 ft 198 kts 264°
2026-05-04 18:57 48.37747 11.96162 3328 ft 188 kts 263°
2026-05-04 18:57 48.37605 11.94302 3100 ft 175 kts 264°
2026-05-04 18:57 48.37474 11.92552 2904 ft 159 kts 264°
2026-05-04 18:57 48.37355 11.90967 2694 ft 146 kts 264°
2026-05-04 18:58 48.37245 11.89451 2488 ft 147 kts 264°
2026-05-04 18:58 48.37130 11.87935 2291 ft 143 kts 264°
2026-05-04 18:58 48.37019 11.86481 2085 ft 140 kts 264°
2026-05-04 18:58 48.36911 11.85050 1904 ft 138 kts 265°
2026-05-04 18:59 48.36797 11.83604 1708 ft 139 kts 265°
2026-05-04 18:59 48.36689 11.82165 1541 ft 138 kts 265°
2026-05-04 18:59 48.36588 11.80805 1487 ft 117 kts 264°
2026-05-04 18:59 48.36514 11.79848 1483 ft 67 kts 263°
2026-05-04 19:00 48.36474 11.79319 1486 ft 46 kts 264°
2026-05-04 19:00 48.36393 11.78884 1479 ft 42 kts 237°
2026-05-04 19:00 48.36267 11.78636 1471 ft 16 kts 232°
2026-05-04 19:00 48.36229 11.78561 1478 ft 7 kts 233°
2026-05-04 19:01 48.36188 11.78494 1482 ft 10 kts 213°
2026-05-04 19:01 48.36112 11.78480 1484 ft 13 kts 174°
2026-05-04 19:01 48.36033 11.78524 1477 ft 9 kts 111°
2026-05-04 19:01 48.36039 11.78627 1486 ft 11 kts 83°
2026-05-04 19:02 48.36049 11.78760 1473 ft 14 kts 83°
2026-05-04 19:02 48.36061 11.78923 1478 ft 17 kts 83°
2026-05-04 19:02 48.36078 11.79115 1473 ft 17 kts 83°
2026-05-04 19:02 48.36087 11.79276 1477 ft 13 kts 98°
2026-05-04 19:03 48.36013 11.79330 1478 ft 7 kts 174°
2026-05-04 19:03 48.35999 11.79332 1482 ft 0 kts 174°
2026-05-04 19:04 48.35983 11.79334 1486 ft 4 kts 174°
2026-05-04 19:04 48.35940 11.79343 1483 ft 8 kts 162°
2026-05-04 19:05 48.35879 11.79378 1477 ft 11 kts 170°
2026-05-04 19:05 48.35798 11.79410 1486 ft 13 kts 134°
2026-05-04 19:05 48.35795 11.79553 1486 ft 16 kts 83°
2026-05-04 19:05 48.35808 11.79729 1483 ft 17 kts 83°
2026-05-04 19:06 48.35822 11.79901 1486 ft 18 kts 83°
2026-05-04 19:06 48.35825 11.80020 1486 ft 11 kts 106°
2026-05-04 19:06 48.35750 11.80074 1480 ft 14 kts 172°
2026-05-04 19:06 48.35646 11.80100 1484 ft 17 kts 171°
2026-05-04 19:07 48.35525 11.80120 1477 ft 14 kts 174°
2026-05-04 19:07 48.35452 11.80132 1474 ft 9 kts 173°
2026-05-04 19:07 48.35430 11.80095 1483 ft 6 kts 256°
2026-05-04 19:07 48.35425 11.80041 1481 ft 4 kts 263°
2026-05-04 19:08 48.35423 11.80026 1476 ft 1 kts 263°
2026-05-04 19:08 48.35423 11.80025 1477 ft 0 kts 263°